Weather History for Claremore, OK

Change the Weather History Date:

Wednesday, June 12, 2013

  Actual Average (KTUL) Record (KTUL)
Temperature  
Mean Temperature 82 °F 77 °F  
Max Temperature 91 °F 87 °F 99 °F (1953)
Min Temperature 73 °F 67 °F 50 °F (1913)
Cooling Degree Days 17 12  
Month to date cooling degree days 123  
Year to date cooling degree days 357  
Since 1 June cooling degree days 123  
Growing Degree Days 32 (Base 50)    
Moisture  
Dew Point 70 °F    
Average Humidity 69    
Maximum Humidity 88    
Minimum Humidity 46    
Precipitation  
Precipitation 0.00 in 0.16 in 1.70 in (2002)
Month to date precipitation 2.15  
Year to date precipitation 18.65  
Sea Level Pressure  
Sea Level Pressure 29.95 in    
Wind  
Wind Speed 13 mph (SSW)    
Max Wind Speed 26 mph    
Max Gust Speed 33 mph    
Visibility 10 miles    
Events      
T = Trace of Precipitation, MM = Missing Value Source: NWS Daily Summary

Daily Weather History Graph

Daily Weather History Graph

Search for Another Location

Airport:

Trip Planner

Search our weather history database for the weather conditions in past years. The results will help you decide how hot, cold, wet, or windy it might be!

Date:

Astronomy

Jun. 12, 2013 Rise Set
Actual Time 6:03 AM CDT 8:40 PM CDT
Civil Twilight 5:33 AM CDT 9:10 PM CDT
Nautical Twilight 4:55 AM CDT 9:48 PM CDT
Astronomical Twilight 4:13 AM CDT 10:30 PM CDT
Moon 9:39 AM CDT (6/12) 11:22 PM CDT (6/12)
Length of Visible Light 15h 37m
Length of Day
14h 36m
Waxing Crescent, 14% of the Moon is Illuminated
Jun 12
Waxing Crescent
Jun 16
First Quarter
Jun 23
Full
Jun 29
Last Quarter
Jul 8
New

Hourly Weather History & Observations

Time (CDT) Temp. Heat Index Dew Point Humidity Pressure Visibility Wind Dir Wind Speed Gust Speed Precip Events Conditions
12:15 AM 77.0 °F - 68.0 °F 74% 29.96 in 10.0 mi South 11.5 mph 17.3 mph N/A   Clear
12:35 AM 77.0 °F - 69.8 °F 78% 29.96 in 10.0 mi SSE 8.1 mph - N/A   Clear
12:55 AM 75.2 °F - 69.8 °F 83% 29.95 in 10.0 mi South 9.2 mph - N/A   Clear
1:15 AM 73.4 °F - 69.8 °F 88% 29.95 in 10.0 mi South 8.1 mph - N/A   Clear
1:35 AM 73.4 °F - 69.8 °F 88% 29.94 in 10.0 mi South 10.4 mph - N/A   Clear
1:55 AM 73.4 °F - 69.8 °F 88% 29.94 in 10.0 mi South 9.2 mph - N/A   Clear
2:15 AM 73.4 °F - 69.8 °F 88% 29.94 in 10.0 mi South 8.1 mph - N/A   Clear
2:35 AM 73.4 °F - 69.8 °F 88% 29.93 in 10.0 mi South 10.4 mph - N/A   Clear
2:55 AM 73.4 °F - 69.8 °F 88% 29.93 in 10.0 mi South 10.4 mph - N/A   Clear
3:15 AM 73.4 °F - 69.8 °F 88% 29.92 in 10.0 mi South 11.5 mph - N/A   Clear
3:35 AM 73.4 °F - 69.8 °F 88% 29.92 in 10.0 mi South 12.7 mph - N/A   Clear
3:55 AM 73.4 °F - 69.8 °F 88% 29.92 in 10.0 mi South 12.7 mph - N/A   Clear
4:15 AM 73.4 °F - 69.8 °F 88% 29.92 in 10.0 mi South 11.5 mph - N/A   Clear
4:35 AM 73.4 °F - 69.8 °F 88% 29.93 in 10.0 mi South 9.2 mph - N/A   Clear
4:55 AM 73.4 °F - 69.8 °F 88% 29.94 in 10.0 mi SSW 10.4 mph - N/A   Clear
5:15 AM 73.4 °F - 69.8 °F 88% 29.95 in 10.0 mi SSW 10.4 mph - N/A   Clear
5:35 AM 73.4 °F - 69.8 °F 88% 29.95 in 10.0 mi South 10.4 mph - N/A   Clear
5:55 AM 73.4 °F - 69.8 °F 88% 29.96 in 10.0 mi South 9.2 mph 17.3 mph N/A   Clear
6:15 AM 73.4 °F - 69.8 °F 88% 29.98 in 10.0 mi South 9.2 mph - N/A   Clear
6:35 AM 73.4 °F - 69.8 °F 88% 29.98 in 10.0 mi South 8.1 mph - N/A   Clear
6:55 AM 73.4 °F - 69.8 °F 88% 29.98 in 10.0 mi South 8.1 mph - N/A   Clear
7:15 AM 75.2 °F - 69.8 °F 83% 29.98 in 10.0 mi South 10.4 mph - N/A   Clear
7:35 AM 75.2 °F - 69.8 °F 83% 29.98 in 10.0 mi South 11.5 mph - N/A   Clear
7:55 AM 77.0 °F - 69.8 °F 78% 29.98 in 10.0 mi South 12.7 mph 19.6 mph N/A   Clear
8:15 AM 78.8 °F - 69.8 °F 74% 29.99 in 10.0 mi SSW 16.1 mph 19.6 mph N/A   Clear
8:35 AM 78.8 °F - 69.8 °F 74% 29.99 in 10.0 mi SSW 16.1 mph 19.6 mph N/A   Clear
8:55 AM 78.8 °F - 69.8 °F 74% 30.00 in 10.0 mi SSW 13.8 mph 23.0 mph N/A   Clear
9:15 AM 80.6 °F 83.9 °F 69.8 °F 70% 30.00 in 10.0 mi SSW 17.3 mph 20.7 mph N/A   Clear
9:35 AM 82.4 °F 86.3 °F 69.8 °F 66% 29.99 in 10.0 mi SSW 18.4 mph 23.0 mph N/A   Clear
9:55 AM 82.4 °F 85.4 °F 68.0 °F 62% 29.99 in 10.0 mi SW 18.4 mph 25.3 mph N/A   Clear
10:15 AM 84.2 °F 87.3 °F 68.0 °F 58% 29.98 in 10.0 mi SSW 18.4 mph 25.3 mph N/A   Clear
10:35 AM 84.2 °F 87.3 °F 68.0 °F 58% 29.97 in 10.0 mi SSW 20.7 mph 25.3 mph N/A   Clear
10:55 AM 86.0 °F 89.4 °F 68.0 °F 55% 29.97 in 10.0 mi SSW 18.4 mph 26.5 mph N/A   Clear
11:15 AM 86.0 °F 89.4 °F 68.0 °F 55% 29.97 in 10.0 mi SSW 20.7 mph 26.5 mph N/A   Clear
11:35 AM 86.0 °F 89.4 °F 68.0 °F 55% 29.97 in 10.0 mi SSW 16.1 mph 25.3 mph N/A   Clear
11:55 AM 87.8 °F 91.4 °F 68.0 °F 52% 29.96 in 10.0 mi SSW 20.7 mph 27.6 mph N/A   Clear
12:15 PM 87.8 °F 91.4 °F 68.0 °F 52% 29.96 in 10.0 mi SSW 19.6 mph 26.5 mph N/A   Clear
12:35 PM 87.8 °F 91.4 °F 68.0 °F 52% 29.95 in 10.0 mi SSW 23.0 mph 29.9 mph N/A   Clear
12:55 PM 87.8 °F 91.4 °F 68.0 °F 52% 29.95 in 10.0 mi SSW 21.9 mph 31.1 mph N/A   Clear
1:15 PM 89.6 °F 93.4 °F 68.0 °F 49% 29.95 in 10.0 mi SSW 25.3 mph 33.4 mph N/A   Clear
1:35 PM 89.6 °F 93.4 °F 68.0 °F 49% 29.95 in 10.0 mi SSW 26.5 mph 32.2 mph N/A   Clear
1:55 PM 89.6 °F 93.4 °F 68.0 °F 49% 29.95 in 10.0 mi SSW 23.0 mph 28.8 mph N/A   Clear
2:15 PM 89.6 °F 94.7 °F 69.8 °F 52% 29.94 in 10.0 mi SSW 20.7 mph 27.6 mph N/A   Clear
2:35 PM 89.6 °F 93.4 °F 68.0 °F 49% 29.94 in 10.0 mi SW 20.7 mph 27.6 mph N/A   Clear
2:55 PM 89.6 °F 93.4 °F 68.0 °F 49% 29.94 in 10.0 mi SW 21.9 mph 27.6 mph N/A   Clear
3:15 PM 91.4 °F 95.4 °F 68.0 °F 46% 29.93 in 10.0 mi SSW 20.7 mph 26.5 mph N/A   Clear
3:35 PM 89.6 °F 94.7 °F 69.8 °F 52% 29.93 in 10.0 mi SSW 15.0 mph - N/A   Clear
3:55 PM 91.4 °F 96.8 °F 69.8 °F 49% 29.93 in 10.0 mi SSW 20.7 mph 25.3 mph N/A   Clear
4:15 PM 91.4 °F 96.8 °F 69.8 °F 49% 29.93 in 10.0 mi SSW 21.9 mph 26.5 mph N/A   Clear
4:35 PM 91.4 °F 96.8 °F 69.8 °F 49% 29.93 in 10.0 mi SSW 17.3 mph 24.2 mph N/A   Clear
4:55 PM 89.6 °F 94.7 °F 69.8 °F 52% 29.93 in 10.0 mi SW 18.4 mph 25.3 mph N/A   Clear
5:15 PM 89.6 °F 94.7 °F 69.8 °F 52% 29.93 in 10.0 mi SW 19.6 mph 24.2 mph N/A   Clear
5:35 PM 89.6 °F 94.7 °F 69.8 °F 52% 29.92 in 10.0 mi SW 19.6 mph 25.3 mph N/A   Clear
5:55 PM 89.6 °F 94.7 °F 69.8 °F 52% 29.92 in 10.0 mi SW 15.0 mph 25.3 mph N/A   Clear
6:15 PM 89.6 °F 94.7 °F 69.8 °F 52% 29.92 in 10.0 mi SSW 15.0 mph 21.9 mph N/A   Clear
6:35 PM 89.6 °F 94.7 °F 69.8 °F 52% 29.92 in 10.0 mi SW 9.2 mph 12.7 mph N/A   Clear
6:55 PM 89.6 °F 96.2 °F 71.6 °F 55% 29.91 in 10.0 mi SSW 11.5 mph 18.4 mph N/A   Clear
7:15 PM 87.8 °F 93.8 °F 71.6 °F 58% 29.91 in 10.0 mi SSW 11.5 mph - N/A   Clear
7:35 PM 87.8 °F 93.8 °F 71.6 °F 58% 29.92 in 10.0 mi SSW 9.2 mph - N/A   Clear
7:55 PM 86.0 °F 91.8 °F 71.6 °F 62% 29.93 in 10.0 mi SSW 9.2 mph - N/A   Clear
8:15 PM 84.2 °F 89.6 °F 71.6 °F 66% 29.93 in 10.0 mi SSW 9.2 mph - N/A   Clear
8:35 PM 82.4 °F 87.2 °F 71.6 °F 70% 29.93 in 10.0 mi SSW 9.2 mph - N/A   Clear
8:55 PM 80.6 °F 84.6 °F 71.6 °F 74% 29.93 in 10.0 mi South 9.2 mph - N/A   Clear
9:15 PM 80.6 °F 84.6 °F 71.6 °F 74% 29.93 in 10.0 mi South 9.2 mph - N/A   Clear
9:35 PM 80.6 °F 84.6 °F 71.6 °F 74% 29.94 in 10.0 mi South 8.1 mph - N/A   Clear
9:55 PM 80.6 °F 84.6 °F 71.6 °F 74% 29.94 in 10.0 mi South 10.4 mph - N/A   Clear
10:15 PM 78.8 °F - 71.6 °F 78% 29.95 in 10.0 mi South 8.1 mph - N/A   Clear
10:35 PM 78.8 °F - 69.8 °F 74% 29.95 in 10.0 mi South 8.1 mph - N/A   Clear
10:55 PM 78.8 °F - 69.8 °F 74% 29.96 in 10.0 mi SSW 8.1 mph - N/A   Clear
11:15 PM 78.8 °F - 69.8 °F 74% 29.95 in 10.0 mi SSW 8.1 mph - N/A   Clear
11:35 PM 77.0 °F - 69.8 °F 78% 29.96 in 10.0 mi South 6.9 mph - N/A   Clear
11:55 PM 77.0 °F - 69.8 °F 78% 29.96 in 10.0 mi South 6.9 mph - N/A   Clear